Weather History for Alturas, CA

Change the Weather History Date:

Friday, March 28, 2014

  Actual Average Record
Temperature  
Mean Temperature 45 °F 40 °F  
Max Temperature 54 °F 54 °F 77 °F (1966)
Min Temperature 35 °F 26 °F 9 °F (1908)
Degree Days  
Heating Degree Days 20 25  
Month to date heating degree days 662 749  
Since 1 July heating degree days 5427 5616  
Cooling Degree Days 0 0  
Month to date cooling degree days 0 0  
Year to date cooling degree days 0 0  
Moisture  
Dew Point 35 °F    
Average Humidity 71    
Maximum Humidity 92    
Minimum Humidity 50    
Precipitation  
Precipitation 0.03 in 0.06 in 0.37 in (1963)
Month to date precipitation 1.44 1.36  
Year to date precipitation 3.04 4.46  
Sea Level Pressure  
Sea Level Pressure 30.00 in    
Wind  
Wind Speed 14 mph (South)    
Max Wind Speed 25 mph    
Max Gust Speed 31 mph    
Visibility 10 miles    
Events Rain    
T = Trace of Precipitation, MM = Missing Value Source: NWS Daily Summary

Daily Weather History Graph

Daily Weather History Graph

Search for Another Location

Airport:

Trip Planner

Search our weather history database for the weather conditions in past years. The results will help you decide how hot, cold, wet, or windy it might be!

Date:

Astronomy

Mar. 28, 2014 Rise Set
Actual Time 6:51 AM PDT 7:23 PM PDT
Civil Twilight 6:24 AM PDT 7:51 PM PDT
Nautical Twilight 5:51 AM PDT 8:24 PM PDT
Astronomical Twilight 5:17 AM PDT 8:57 PM PDT
Moon 5:27 AM PDT (3/28) 5:24 PM PDT (3/28)
Length of Visible Light 13h 27m
Length of Day
12h 31m
Waning Crescent, 5% of the Moon is Illuminated
Mar 28
Waning Crescent
Mar 30
New
Apr 7
First Quarter
Apr 15
Full
Apr 22
Last Quarter

Hourly Weather History & Observations

Time (PDT) Temp. Windchill Dew Point Humidity Pressure Visibility Wind Dir Wind Speed Gust Speed Precip Events Conditions
12:03 AM 37.0 °F - 34.0 °F 89% 30.04 in 10.0 mi Calm Calm - N/A   Overcast
12:52 AM 37.4 °F - 33.8 °F 87% 30.04 in 9.0 mi Calm Calm - N/A   Overcast
12:55 AM 37.0 °F - 34.0 °F 89% 30.05 in 9.0 mi Calm Calm - N/A   Overcast
1:05 AM 37.0 °F - 35.1 °F 93% 30.04 in 10.0 mi Calm Calm - N/A   Overcast
1:55 AM 36.0 °F - 34.0 °F 93% 30.04 in 10.0 mi Calm Calm - N/A   Overcast
2:55 AM 37.0 °F 31.6 °F 33.1 °F 86% 30.03 in 10.0 mi SSE 6.9 mph - N/A   Overcast
3:55 AM 37.9 °F 31.5 °F 33.1 °F 83% 30.02 in 10.0 mi South 9.2 mph - N/A   Overcast
4:55 AM 37.9 °F 31.5 °F 33.1 °F 83% 30.02 in 10.0 mi South 9.2 mph - 0.00 in   Overcast
5:55 AM 37.9 °F 32.1 °F 33.1 °F 83% 30.03 in 10.0 mi South 8.1 mph - N/A   Overcast
6:55 AM 39.9 °F 32.9 °F 32.0 °F 73% 30.03 in 10.0 mi South 11.5 mph - N/A   Overcast
7:55 AM 41.0 °F 34.3 °F 33.1 °F 73% 30.04 in 10.0 mi South 11.5 mph - N/A   Mostly Cloudy
8:55 AM 44.1 °F 37.4 °F 34.0 °F 68% 30.04 in 10.0 mi South 13.8 mph - N/A   Mostly Cloudy
9:55 AM 46.0 °F 39.3 °F 35.1 °F 66% 30.04 in 10.0 mi South 16.1 mph - N/A   Mostly Cloudy
10:55 AM 48.9 °F - 34.0 °F 56% 30.03 in 10.0 mi South 15.0 mph 24.2 mph N/A   Mostly Cloudy
11:55 AM 50.0 °F - 33.1 °F 52% 30.03 in 10.0 mi SSW 18.4 mph 25.3 mph N/A   Overcast
12:55 PM 50.0 °F - 36.0 °F 59% 30.03 in 10.0 mi SSW 18.4 mph 25.3 mph N/A   Overcast
1:55 PM 51.1 °F - 36.0 °F 56% 30.01 in 10.0 mi SSW 17.3 mph 25.3 mph N/A   Scattered Clouds
2:55 PM 53.1 °F - 35.1 °F 50% 29.96 in 10.0 mi South 20.7 mph 29.9 mph N/A   Overcast
3:55 PM 48.0 °F - 37.9 °F 68% 29.98 in 10.0 mi SSW 18.4 mph 28.8 mph 0.00 in Rain Light Rain
4:55 PM 46.9 °F - 39.9 °F 77% 29.96 in 9.0 mi SW 13.8 mph - 0.01 in Rain Light Rain
5:55 PM 48.9 °F - 36.0 °F 61% 29.94 in 10.0 mi South 18.4 mph 25.3 mph 0.00 in   Overcast
6:55 PM 46.9 °F - 35.1 °F 63% 29.94 in 10.0 mi South 19.6 mph - N/A   Overcast
7:55 PM 46.0 °F 40.2 °F 35.1 °F 66% 29.94 in 10.0 mi South 12.7 mph - N/A   Overcast
8:55 PM 46.0 °F 39.3 °F 35.1 °F 66% 29.94 in 10.0 mi South 16.1 mph 24.2 mph N/A   Overcast
9:55 PM 46.0 °F 39.3 °F 35.1 °F 66% 29.92 in 10.0 mi SSE 16.1 mph 21.9 mph N/A   Overcast
10:55 PM 46.0 °F 39.3 °F 35.1 °F 66% 29.91 in 10.0 mi South 16.1 mph 24.2 mph 0.00 in   Overcast
11:55 PM 43.0 °F 38.2 °F 37.9 °F 82% 29.92 in 10.0 mi SSW 8.1 mph - 0.02 in Rain Light Rain